Portada
METAR-TAF:

METAR-TAF

Aeroports :

Fairfield Municipal Airport

Fairfield, Iowa, Estats Units d'Amèrica

latitud: 41-03N, longitud: 091-59W, altitud: 244 m

Observació

L'informe es va fer fa 23 minuts, a les 01:15 UTC
Vent 14 kt del Nord/Nord-Oest
Temperatura -14°C
Humitat 72%
Pressió 1023 hPa
Visibilitat: 16.1 km
Cel clar

METAR: KFFL 200115Z AUTO 33014KT 10SM CLR M14/M18 A3021 RMK AO2 PWINO

Hora: 19:38 (01:38 UTC)


TAF: manca

Observacions i pronòstics meteorològics de més de 4000 aeroports (METAR i TAF).

Les estacions disponibles són els punts grocs i vermells al mapa.

Posi el ratolí al punt desitjat per veure el nom de l'estació.

Feu clic per veure les observacions i els pronòstics meteorològics.

Per canviar el mapa: feu clic els botons verds amb una creu de color negre per apropar; al botó verd amb un guió per allunyar la imatge; o en les fletxes verdes per a mapes adjacents.


METAR-TAF: